Weather History for La Veta Pass, CO

Change the Weather History Date:

Sunday, July 28, 2013

  Actual Average (KTAD) Record (KTAD)
Temperature  
Mean Temperature 52 °F 73 °F  
Max Temperature 59 °F 88 °F 98 °F (1960)
Min Temperature 46 °F 59 °F 50 °F (1990)
Degree Days  
Heating Degree Days 12 0  
Month to date heating degree days 0  
Since 1 June heating degree days 39  
Since 1 July heating degree days 0  
Cooling Degree Days 0 8  
Month to date cooling degree days 243  
Year to date cooling degree days 412  
Since 1 June cooling degree days 384  
Growing Degree Days 2 (Base 50)    
Moisture  
Dew Point 47 °F    
Average Humidity 88    
Maximum Humidity 100    
Minimum Humidity 71    
Precipitation  
Precipitation 0.00 in 0.09 in 0.63 in (2011)
Month to date precipitation 2.03  
Year to date precipitation 7.96  
Sea Level Pressure  
Sea Level Pressure 30.35 in    
Wind  
Wind Speed 9 mph (SW)    
Max Wind Speed 16 mph    
Max Gust Speed 24 mph    
Visibility 9 miles    
Events Fog , Rain , Thunderstorm    
T = Trace of Precipitation, MM = Missing Value Source: NWS Daily Summary

Daily Weather History Graph

Daily Weather History Graph

Search for Another Location

Airport:

Trip Planner

Search our weather history database for the weather conditions in past years. The results will help you decide how hot, cold, wet, or windy it might be!

Date:

Astronomy

Jul. 28, 2013 Rise Set
Actual Time 6:01 AM MDT 8:12 PM MDT
Civil Twilight 5:32 AM MDT 8:41 PM MDT
Nautical Twilight 4:56 AM MDT 9:17 PM MDT
Astronomical Twilight 4:17 AM MDT 9:55 PM MDT
Moon 11:45 PM MDT (7/28) 12:37 PM MDT (7/28)
Length of Visible Light 15h 08m
Length of Day
14h 10m
Waning Gibbous, 60% of the Moon is Illuminated
Jul 28
Waning Gibbous
Jul 29
Last Quarter
Aug 6
New
Aug 14
First Quarter
Aug 20
Full

Hourly Weather History & Observations

Time (MDT) Temp. Windchill Dew Point Humidity Pressure Visibility Wind Dir Wind Speed Gust Speed Precip Events Conditions
12:15 AM 51.8 °F - 42.8 °F 71% 30.44 in 10.0 mi SW 10.4 mph 20.7 mph N/A   Overcast
12:35 AM 51.8 °F - 44.6 °F 76% 30.43 in 10.0 mi SW 9.2 mph 19.6 mph N/A Rain Light Rain
12:55 AM 50.0 °F - 44.6 °F 82% 30.42 in 10.0 mi SW 12.7 mph 23.0 mph N/A Rain Light Rain
1:15 AM 48.2 °F - 44.6 °F 87% 30.42 in 10.0 mi SW 11.5 mph 24.2 mph N/A Rain Light Rain
1:35 AM 46.4 °F 41.1 °F 44.6 °F 93% 30.41 in 10.0 mi SW 11.5 mph 23.0 mph N/A   Overcast
1:55 AM 46.4 °F 41.1 °F 44.6 °F 93% 30.40 in 10.0 mi SW 11.5 mph 21.9 mph N/A   Overcast
2:15 AM 46.4 °F 41.9 °F 42.8 °F 87% 30.40 in 10.0 mi SW 9.2 mph 23.0 mph N/A   Overcast
2:34 AM 46.4 °F 40.4 °F 42.8 °F 87% 30.39 in 10.0 mi SW 13.8 mph 24.2 mph N/A   Overcast
2:55 AM 46.4 °F 41.9 °F 44.6 °F 93% 30.38 in 10.0 mi SW 9.2 mph 17.3 mph N/A   Overcast
3:15 AM 46.4 °F 41.5 °F 44.6 °F 93% 30.37 in 10.0 mi SW 10.4 mph 18.4 mph N/A   Overcast
3:35 AM 46.4 °F 41.5 °F 44.6 °F 93% 30.36 in 7.0 mi SW 10.4 mph 24.2 mph N/A Rain Rain
3:55 AM 46.4 °F 41.5 °F 44.6 °F 93% 30.35 in 5.0 mi SW 10.4 mph 20.7 mph N/A   Drizzle
4:14 AM 46.4 °F 42.4 °F 44.6 °F 93% 30.34 in 3.0 mi West 8.1 mph 17.3 mph N/A   Drizzle
4:35 AM 46.4 °F 40.7 °F 44.6 °F 93% 30.34 in 2.5 mi SW 12.7 mph 23.0 mph N/A   Overcast
4:55 AM 46.4 °F 41.1 °F 44.6 °F 93% 30.33 in 10.0 mi SW 11.5 mph 20.7 mph N/A   Drizzle
5:14 AM 46.4 °F 41.5 °F 44.6 °F 93% 30.33 in 4.0 mi WSW 10.4 mph 18.4 mph N/A   Light Drizzle
5:34 AM 46.4 °F 42.9 °F 44.6 °F 93% 30.33 in 1.0 mi WSW 6.9 mph - N/A   Overcast
5:55 AM 46.4 °F 41.5 °F 44.6 °F 93% 30.32 in 10.0 mi WSW 10.4 mph 24.2 mph N/A Rain Rain
6:14 AM 46.4 °F 41.5 °F 44.6 °F 93% 30.32 in 10.0 mi SW 10.4 mph 23.0 mph N/A   Scattered Clouds
6:35 AM 46.4 °F 41.9 °F 44.6 °F 93% 30.33 in 10.0 mi SW 9.2 mph 18.4 mph N/A   Scattered Clouds
6:55 AM 46.4 °F 42.4 °F 44.6 °F 93% 30.33 in 0.5 mi SW 8.1 mph - N/A Fog Fog
7:15 AM 46.4 °F 42.9 °F 44.6 °F 93% 30.34 in 0.5 mi WSW 6.9 mph 16.1 mph N/A Fog Fog
7:35 AM 46.4 °F 41.5 °F 44.6 °F 93% 30.33 in 4.0 mi SW 10.4 mph 24.2 mph N/A   Mostly Cloudy
7:55 AM 46.4 °F 41.5 °F 46.4 °F 100% 30.33 in 10.0 mi WSW 10.4 mph 21.9 mph N/A   Mostly Cloudy
8:15 AM 48.2 °F - 46.4 °F 93% 30.33 in 7.0 mi WSW 8.1 mph - N/A   Overcast
8:34 AM 50.0 °F - 46.4 °F 87% 30.33 in 10.0 mi WSW 8.1 mph 21.9 mph N/A   Mostly Cloudy
8:55 AM 48.2 °F - 46.4 °F 93% 30.33 in 4.0 mi SW 8.1 mph 17.3 mph N/A   Overcast
9:14 AM 50.0 °F - 46.4 °F 87% 30.34 in 10.0 mi WSW 6.9 mph - N/A   Overcast
9:35 AM 51.8 °F - 48.2 °F 88% 30.34 in 10.0 mi SW 6.9 mph 19.6 mph N/A   Overcast
9:55 AM 53.6 °F - 50.0 °F 88% 30.35 in 10.0 mi WSW 8.1 mph 20.7 mph N/A   Overcast
10:15 AM 51.8 °F - 48.2 °F 88% 30.35 in 10.0 mi WSW 6.9 mph 19.6 mph N/A   Overcast
10:35 AM 53.6 °F - 50.0 °F 88% 30.35 in 10.0 mi WSW 9.2 mph - N/A   Overcast
10:54 AM 53.6 °F - 48.2 °F 82% 30.35 in 10.0 mi SW 8.1 mph - N/A   Scattered Clouds
11:15 AM 55.4 °F - 46.4 °F 72% 30.35 in 10.0 mi SW 8.1 mph - N/A   Scattered Clouds
11:35 AM 59.0 °F - 50.0 °F 72% 30.36 in 10.0 mi SW 5.8 mph 18.4 mph N/A   Mostly Cloudy
11:55 AM 59.0 °F - 50.0 °F 72% 30.36 in 10.0 mi SW 5.8 mph - N/A   Mostly Cloudy
12:15 PM 55.4 °F - 48.2 °F 77% 30.35 in 10.0 mi SW 5.8 mph - N/A   Overcast
12:35 PM 57.2 °F - 48.2 °F 72% 30.35 in 10.0 mi SW 9.2 mph 17.3 mph N/A   Overcast
12:54 PM 59.0 °F - 50.0 °F 72% 30.35 in 10.0 mi West 6.9 mph - N/A Thunderstorm Mostly Cloudy
1:15 PM 53.6 °F - 50.0 °F 88% 30.35 in 7.0 mi SW 12.7 mph 23.0 mph N/A Rain , Thunderstorm Light Thunderstorms and Rain
1:35 PM 51.8 °F - 50.0 °F 94% 30.34 in 2.5 mi SW 16.1 mph 23.0 mph N/A Rain , Thunderstorm Thunderstorms and Rain
1:55 PM 53.6 °F - 51.8 °F 94% 30.33 in 7.0 mi SW 15.0 mph 21.9 mph N/A Rain , Thunderstorm Light Thunderstorms and Rain
2:15 PM 53.6 °F - 51.8 °F 94% 30.33 in 7.0 mi SW 13.8 mph 21.9 mph N/A Rain , Thunderstorm Light Thunderstorms and Rain
2:34 PM 57.2 °F - 53.6 °F 88% 30.33 in 10.0 mi SW 8.1 mph 17.3 mph N/A Thunderstorm Thunderstorm
2:55 PM 53.6 °F - 51.8 °F 94% 30.33 in 10.0 mi SW 15.0 mph 23.0 mph N/A Thunderstorm Thunderstorm
3:15 PM 51.8 °F - 50.0 °F 94% 30.34 in 10.0 mi SW 5.8 mph - N/A Rain , Thunderstorm Light Thunderstorms and Rain
3:35 PM 53.6 °F - 51.8 °F 94% 30.35 in 10.0 mi West 6.9 mph - N/A Thunderstorm Thunderstorm
3:55 PM 53.6 °F - 51.8 °F 94% 30.34 in 10.0 mi SW 4.6 mph - N/A Rain Light Rain
4:14 PM 53.6 °F - 51.8 °F 94% 30.34 in 10.0 mi WSW 4.6 mph - N/A   Mostly Cloudy
4:35 PM 55.4 °F - 51.8 °F 88% 30.34 in 10.0 mi WSW 4.6 mph - N/A   Mostly Cloudy
4:54 PM 53.6 °F - 50.0 °F 88% 30.34 in 10.0 mi West 4.6 mph - N/A   Mostly Cloudy
5:15 PM 53.6 °F - 50.0 °F 88% 30.34 in 10.0 mi WSW 4.6 mph - N/A   Overcast
5:35 PM 53.6 °F - 51.8 °F 94% 30.34 in 10.0 mi WSW 4.6 mph - N/A   Overcast
5:55 PM 53.6 °F - 48.2 °F 82% 30.34 in 10.0 mi West 9.2 mph - N/A   Overcast
6:15 PM 53.6 °F - 46.4 °F 77% 30.33 in 10.0 mi West 8.1 mph - N/A   Mostly Cloudy
6:34 PM 53.6 °F - 46.4 °F 77% 30.34 in 10.0 mi SW 6.9 mph - N/A   Mostly Cloudy
6:55 PM 53.6 °F - 48.2 °F 82% 30.35 in 10.0 mi SW 8.1 mph - N/A   Overcast
7:15 PM 51.8 °F - 48.2 °F 88% 30.34 in 10.0 mi SW 13.8 mph - N/A   Overcast
7:34 PM 51.8 °F - 46.4 °F 82% 30.34 in 10.0 mi SW 8.1 mph - N/A   Mostly Cloudy
7:55 PM 50.0 °F - 44.6 °F 82% 30.34 in 10.0 mi SW 8.1 mph 17.3 mph N/A   Mostly Cloudy
8:15 PM 50.0 °F - 44.6 °F 82% 30.34 in 10.0 mi WNW 5.8 mph - N/A   Overcast
8:34 PM 50.0 °F - 44.6 °F 82% 30.34 in 10.0 mi West 8.1 mph - N/A   Overcast
8:55 PM 48.2 °F - 42.8 °F 82% 30.35 in 10.0 mi West 6.9 mph - N/A   Overcast
9:15 PM 46.4 °F 44.3 °F 42.8 °F 87% 30.35 in 10.0 mi WSW 4.6 mph - N/A   Mostly Cloudy
9:35 PM 46.4 °F 44.3 °F 44.6 °F 93% 30.37 in 10.0 mi SSW 4.6 mph - N/A   Scattered Clouds
9:55 PM 46.4 °F 43.5 °F 44.6 °F 93% 30.37 in 10.0 mi SSW 5.8 mph - N/A   Clear
10:14 PM 46.4 °F 45.2 °F 44.6 °F 93% 30.37 in 10.0 mi SW 3.5 mph - N/A   Clear
10:35 PM 46.4 °F 43.5 °F 42.8 °F 87% 30.38 in 10.0 mi SW 5.8 mph - N/A   Clear
10:54 PM 46.4 °F 42.4 °F 44.6 °F 93% 30.38 in 10.0 mi SW 8.1 mph - N/A   Clear
11:15 PM 46.4 °F 41.5 °F 42.8 °F 87% 30.38 in 10.0 mi SW 10.4 mph 18.4 mph N/A   Clear
11:34 PM 46.4 °F 41.5 °F 42.8 °F 87% 30.37 in 10.0 mi SW 10.4 mph - N/A   Clear
11:55 PM 46.4 °F 41.5 °F 42.8 °F 87% 30.37 in 10.0 mi SW 10.4 mph 19.6 mph N/A   Clear